Погода в Шиели

Хотите узнать прогноз погоды в Шиели? Тогда Вам сюда: Погода в Шиели

Поиск расширенной информации на нашем сайте:

Полезная информация:

Новости сайта



02.01.2020
Опубликован Долгосрочный прогноз погоды по городам России и ближнего зарубежья на январь 2020 года.
Карты: Прогноз на январь и февраль 2020 года, Сравнение прогнозируемой аномалии приземной температуры воздуха на январь 2020 года по разным моделям.




Погода в Шиели - сегодня

Время (UTC), дата Ветер
(°,м/с) 
Видим.   Явления Облачность Т
(°С)
Тd
(°С)
f(%) Тe
(°С)
Pmin
(гПа)
dP
(гПа)
Po
(мм)
O2
(г/м3)
Тmin Tmax R s Состояние
почвы
09 22.10.21 260 (З) 20000 м    8/0 верхняя 
[Cc]
+9.1 -6 34 +9  1033.3  761  297           
12 22.10.21 270 (З) 20000 м    9/0 средняя 
[Ac trans]
+8.7 -6.7 33 +9  1033.9  0.6  761  298           
15 22.10.21 тихо ()   н/о    8/0 средняя 
[Ac trans]
+7.3 -5.7 39 +7  1035.5  1.5  762  300    +9.6       
18 22.10.21 160 (Ю) н/о    9/0 верхняя 
[Cs]
+6.7 -5 43 +8  1035.8  0.3  763  300    +9.6       
21 22.10.21 190 (Ю) н/о    9/0 средняя 
[Ac lent]
+6.3 -4.4 46 +6  1035.2  -0.6  762  301           
00 23.10.21 210 (ЮЗ) н/о    9/0 средняя 
[Ac As]
+6.2 -4.2 47 +6  1035  -0.2  762  301           
03 23.10.21 170 (Ю) 20000 м    8/0 средняя 
[Ac lent]
+5.9 -4.2 48 +6  1035.4  0.4  762  301           
06 23.10.21 180 (Ю) 20000 м    4/0 верхняя 
[Ci fib]
+11 -3.3 37 +11  1034.7  -0.4  762  296  +5.4         
09 23.10.21 060 (СВ) 20000 м    ясно 
+13 -5.7 27 +13  1032.8  -1.8  761  293           
12 23.10.21 050 (СВ) 20000 м    ясно 
+12.6 -4.4 30 +14  1031.7  -1.1  760  293           
15 23.10.21 020 (С) н/о    ясно 
+6.7 -0.6 60 +8  1032.1  760  299    +14.2       
18 23.10.21 360 (С) н/о    ясно 
+4 -2.5 63 +5  1030.3  -1.9  758  301    +14.2       
21 23.10.21 тихо ()   н/о    ясно 
+2.8 -2.7 67 +3  1029.1  -1.3  757  302           
00 24.10.21 тихо ()   н/о    ясно 
+1.6 -2.5 74 +2  1027.8  -1.3  756  303           
03 24.10.21 тихо ()   20000 м    ясно 
+2.7 -3.2 65 +3  1026.1  -1.6  755  302           
06 24.10.21 090 (В) 20000 м    ясно 
+17.8 +2.5 36 +18  1023.1  -1.9  754  285  +0.7         
09 24.10.21 070 (В) 20000 м    ясно 
+20.3 -1.4 23 +20  1020.5  -2.5  752  282           
12 24.10.21 080 (В) 20000 м    ясно 
+18.5 -2.5 24 +19  1019.6  -1  751  284           
15 24.10.21 110 (В) н/о    ясно 
+13.6 -0.5 38 +14  1019.3  -0.5  751  288    +21       
18 24.10.21 090 (В) н/о    ясно 
+11.8 -0.2 44 +13  1017.5  -1.9  749  289    +21       
21 24.10.21 080 (В) н/о    ясно 
+8.2 -1.4 51 +9  1016.8  -1  749  293           
00 25.10.21 130 (ЮВ) н/о    ясно 
+6.4 -1.4 57 +7  1016.1  -0.7  748  295           
03 25.10.21 320 (СЗ) 20000 м    ясно 
+4.2 -2.6 61 +5  1016.2  -0.1  748  297           
06 25.10.21 280 (З) 20000 м    ясно 
+15.3 -0.5 34 +17  1016.1  0.5  748  286  +2.2         
09 25.10.21 220 (ЮЗ) 20000 м    ясно 
+19.7 -2.5 22 +21  1013.9  -1.7  747  281           
Время (UTC), дата Ветер
(°,м/с) 
Видим.   Явления Облачность Т
(°С)
Тd
(°С)
f(%) Тe
(°С)
Pmin
(гПа)
dP
(гПа)
Po
(мм)
O2
(г/м3)
Тmin Tmax R s Состояние
почвы

Для получения пояснительной информации подведите курсор к названию столбца.

ПОГОДА в Шиели - архив

Всё, что Вы хотите узнать о погоде в Шиели - удобно и подробно!

Выберите нужную дату (начиная с 1 января 2019* года) и нажмите кнопку "Найти".
Будут отображены архивные сводки погоды по пункту Шиели, начиная с указанной даты.


Отображать данные в формате CSV (для использования в таблицах Excel)


Внимание! Наш архив погоды предназначен исключительно для личного некоммерческого использования в познавательных целях. Если Вам необходимы официальные справки о состоянии погоды (для производственных, юридических, коммерческих и т.п. целей), обращайтесь в органы Росгидромета.

*Примечание: данная дата относится к архиву по метеостанциям СССР (Россия, СНГ, Балтия).
Архив по метеостанциям Зарубежной Европы и Азии (кроме Китая) хранится 10 дней, по другим регионам земного шара (Китай, Африка, Америка, Австралия, Океания) - 1 день.

Шиели - район местоположения метеостанции


Название, широта, долгота, высота метеостанции:
Шиели (Чиили) 44.2°ш. 66.8°д. 153 м над ур. моря [Казахстан]

Дополнительная информация

В oтличие oт бoльшинства пoгoдных сайтoв мы публикуем пoдрoбную метеoинфoрмацию в детальнoм прoфессиoнальнoм фoрмате.

Характеристики температуры и влажнoсти вoздуха измеряются на высoте 2 м в тени вдали oт зданий и деревьев.
Скoрoсть ветра измеряется на высoте 10 м (на урoвне рoста челoвека скoрoсть ветра ниже в 1.5-2 раза). Если метеoстанция нахoдится в гoрoде или в лесу, тo скoрoсть ветра занижена на 2-4 м/с пo сравнению с oткрытым местoм. Скoрoсть ветра над акватoриями крупных рек и oзёр, а также на вершинах хoлмoв на 2-5 м/с выше, чем в oбычных услoвиях.
Атмoсфернoе давление в разных тoчках местнoсти мoжет значительнo oтличаться oт давления на метеoстанции, в зависимoсти oт услoвий рельефа (при пoдъёме на 10 м давление пoнижается примернo на 1 мм рт.ст.).